[[{"header":{"parameterUnit":"m.s-1","parameterCategory":1,"la1":30.2991,"la2":30.254,"lo1":-89.0895,"lo2":-89.0444,"dy":0.0017,"dx":0.0017,"nx":28,"ny":28,"refTime":"2023-11-07T03:00:00:Z","depth":0,"parameterNumber":2,"parameterNumberName":"U-component_of_WINDS"},"data":[0,0,0,0,0,0,0,0,0,0,0,0,0,0,0,0,0,0,0,0,0,0,0,0,0,0,0,0,0,0,0,0,0,0,0,0,0,0,0,0,0,0,0,0,0,0,0,0,0,0,0,0,0,0,0,0,0,0,0.0956,0.0957,0,0.0975,0.0976,0.0976,0.0952,0.0951,0.095,0.0949,0.0969,0.097,0.0971,0,0,0,0,0,0,0,0,0,0,0,0,0,0.0899,0.09,0.0956,0.0957,0.0957,0.0975,0.0976,0.0976,0.0952,0.0951,0.095,0.0949,0.0968,0.097,0.0972,0,0,0,0,0,0,0,0,0,0,0,0,0,0.0922,0.0901,0.0956,0.0947,0.0947,0.0975,0.0976,0.0976,0.0952,0.0951,0.095,0.0948,0.0968,0.097,0.0972,0.1011,0,0,0.0978,0.0979,0,0,0,0,0,0,0,0,0.092,0.0924,0.0948,0.0948,0.0947,0.096,0.0963,0.0988,0.0953,0.095,0.0949,0.0948,0.0967,0.0969,0.0975,0.1012,0.1012,0.0978,0.0979,0.098,0.0981,0,0,0,0,0,0,0,0.0919,0.0923,0.0964,0.0949,0.0948,0.0942,0.0944,0.0967,0.0966,0.095,0.0948,0.0951,0.0966,0.0974,0.0976,0.1013,0.0978,0.098,0.0981,0.0982,0.1082,0.1083,0,0,0,0,0,0,0.0918,0.0922,0.0963,0.0964,0.093,0.0944,0.0946,0.0957,0.0965,0.0965,0.0952,0.095,0.0971,0.0973,0.0976,0.1022,0.098,0.0982,0.0983,0.108,0.1082,0.1083,0,0,0,0,0,0,0.0917,0.0922,0.0963,0.0943,0.0947,0.0947,0.0959,0.0958,0.0965,0.0967,0.0966,0.096,0.097,0.0973,0.1002,0.1023,0.0983,0.0985,0.1078,0.1081,0.1083,0.1115,0,0,0,0,0,0,0.0916,0.0922,0.0937,0.0943,0.0948,0.0988,0.096,0.096,0.0969,0.0966,0.0974,0.0974,0.0969,0.0999,0.1004,0.1025,0.0986,0.1077,0.1079,0.1082,0.1112,0.1118,0.1123,0,0,0,0,0,0.0914,0.0945,0.0938,0.0943,0.0967,0.099,0.0993,0.0986,0.0971,0.0985,0.0986,0.0974,0.102,0.1003,0.1008,0.1029,0.1075,0.1079,0.1082,0.111,0.1117,0.1123,0,0,0,0,0,0,0.0941,0.0946,0.0938,0.0972,0.0981,0.0985,0.1004,0.0994,0.1007,0.1004,0.0996,0.0998,0.1029,0.1032,0.1013,0.1067,0.1045,0.1049,0.1064,0.1071,0.1076,0.1075,0.0988,0,0,0,0,0,0.0951,0.097,0.0972,0.1003,0.1007,0.1005,0.1015,0.1009,0.1017,0.1021,0.1024,0.1033,0.1049,0.106,0.1075,0.1112,0.1114,0.113,0.1135,0.1139,0.1144,0.1164,0.1171,0.1094,0.1094,0.1094,0,0,0.0973,0.0977,0.0989,0.1008,0.1014,0.1033,0.1008,0.1029,0.1043,0.1024,0.1052,0.1054,0.1063,0.1096,0.1111,0.11,0.1165,0.1144,0.1147,0.1149,0.1168,0.1175,0.1181,0.1096,0.1096,0.1096,0,0,0.1021,0.1026,0.1052,0.1058,0.1068,0.1066,0.1072,0.1078,0.1079,0.1107,0.1093,0.1109,0.1138,0.1145,0.1152,0.1203,0.1192,0.1208,0.1237,0.1256,0.1262,0.1268,0.1286,0.1293,0.1212,0.1212,0.1212,0,0.1046,0.1074,0.1066,0.1088,0.1097,0.1081,0.1107,0.1113,0.1127,0.1134,0.1121,0.1156,0.1161,0.1196,0.1208,0.1214,0.1221,0.1207,0.1262,0.1267,0.1272,0.129,0.1296,0.1214,0.1214,0.1213,0.1213,0,0.1104,0.1124,0.1143,0.1157,0.1168,0.1192,0.1188,0.12,0.1194,0.1193,0.1221,0.1227,0.1243,0.125,0.1244,0.1284,0.1277,0.1263,0.1241,0.1281,0.1298,0.1304,0.1217,0.1216,0.1215,0.1215,0,0,0.117,0.118,0.1187,0.1194,0.1203,0.1218,0.1241,0.1256,0.1267,0.1277,0.1296,0.132,0.1308,0.1316,0.131,0.1327,0.1368,0.1312,0.1312,0.1322,0.1412,0.1423,0.1431,0.136,0.1361,0.1362,0.1412,0,0.1219,0.1259,0.1253,0.1292,0.131,0.1295,0.1315,0.1323,0.1323,0.1338,0.1338,0.1356,0.1337,0.1342,0.1358,0.1359,0.1386,0.1356,0.1378,0.1379,0.1377,0.144,0.1451,0.1498,0.1418,0.1419,0.142,0,0.1281,0.1293,0.1334,0.1341,0.1348,0.1366,0.138,0.1395,0.1403,0.1402,0.1412,0.1403,0.1426,0.1402,0.1434,0.1414,0.1423,0.1424,0.1426,0.1428,0.1402,0.1444,0.1512,0.1519,0.143,0.1429,0.1428,0,0.1326,0.1353,0.1381,0.1386,0.1394,0.1408,0.1412,0.1419,0.1429,0.1441,0.1447,0.1461,0.147,0.1481,0.1476,0.146,0.1509,0.1485,0.1509,0.1509,0.1521,0.152,0.1592,0.1525,0.1525,0.1525,0.1525,0,0.1381,0.1406,0.1401,0.1418,0.1447,0.1439,0.1467,0.1469,0.1476,0.1493,0.148,0.1497,0.1489,0.1505,0.1502,0.1529,0.1532,0.1532,0.1531,0.1534,0.1534,0.154,0.1537,0.1527,0.1527,0.1526,0.1526,0,0.1436,0.1433,0.1463,0.1468,0.147,0.1491,0.1495,0.1511,0.151,0.1532,0.1537,0.1536,0.1554,0.155,0.157,0.1567,0.1602,0.1596,0.1599,0.1598,0.1622,0.162,0.1701,0.1711,0.1637,0.1638,0.1639,0,0.1471,0.1491,0.1498,0.1509,0.1514,0.1532,0.1542,0.1535,0.1546,0.1557,0.1572,0.1589,0.1602,0.1632,0.1633,0.1648,0.1643,0.167,0.1645,0.1647,0.1644,0.1643,0.1645,0.1675,0.1676,0.1677,0.1677,0,0.1535,0.1533,0.1548,0.1563,0.1575,0.1586,0.1596,0.1606,0.16,0.1613,0.1631,0.1642,0.1662,0.1679,0.1693,0.1697,0.1686,0.1685,0.1691,0.1695,0.1696,0.1696,0.1613,0.1683,0.1683,0.1682,0.1682,0.1682,0.1581,0.1598,0.1606,0.1623,0.163,0.164,0.1656,0.1657,0.1672,0.1688,0.1683,0.1704,0.1712,0.173,0.1735,0.1752,0.1742,0.1751,0.1753,0.1756,0.1759,0.1693,0.1754,0.1754,0.1754,0.1754,0.1754,0,0.1644,0.1649,0.1665,0.168,0.1693,0.1682,0.1692,0.1705,0.1724,0.1732,0.1745,0.1767,0.1783,0.1785,0.1801,0.1813,0.1809,0.1818,0.1817,0.1818,0.1767,0.176,0.1821,0.1821,0.1821,0.1821,0.1821,0.1821,0.1679,0.1707,0.1706,0.1737,0.1741,0.1762,0.1769,0.1778,0.1784,0.1809,0.1823,0.1824,0.183,0.1845,0.186,0.186,0.1867,0.1878,0.1876,0.1828,0.1822,0.1815,0.1809,0.1879,0.1879,0.1926,0.1926,0.1927]},{"header":{"parameterUnit":"m.s-1","parameterCategory":1,"la1":30.2991,"la2":30.254,"lo1":-89.0895,"lo2":-89.0444,"dy":0.0017,"dx":0.0017,"nx":28,"ny":28,"refTime":"2023-11-07T03:00:00:Z","depth":0,"parameterNumber":3,"parameterNumberName":"V-component_of_WINDS"},"data":[0,0,0,0,0,0,0,0,0,0,0,0,0,0,0,0,0,0,0,0,0,0,0,0,0,0,0,0,0,0,0,0,0,0,0,0,0,0,0,0,0,0,0,0,0,0,0,0,0,0,0,0,0,0,0,0,0,0,1.6432,1.6433,0,1.6483,1.6484,1.6484,1.645,1.6448,1.6446,1.6445,1.6495,1.6498,1.6501,0,0,0,0,0,0,0,0,0,0,0,0,0,1.6305,1.6307,1.6432,1.6433,1.6434,1.6483,1.6484,1.6484,1.645,1.6448,1.6446,1.6444,1.6494,1.6498,1.6501,0,0,0,0,0,0,0,0,0,0,0,0,0,1.6358,1.6308,1.6432,1.6422,1.6422,1.6483,1.6484,1.6484,1.645,1.6448,1.6446,1.6443,1.6493,1.6497,1.6502,1.6574,0,0,1.6514,1.6516,0,0,0,0,0,0,0,0,1.6355,1.6363,1.6423,1.6423,1.6423,1.6458,1.6457,1.6515,1.6451,1.644,1.6445,1.6442,1.6485,1.6489,1.6504,1.6577,1.6579,1.6515,1.6517,1.6519,1.652,0,0,0,0,0,0,0,1.6352,1.6361,1.6452,1.6424,1.6424,1.6415,1.642,1.6468,1.6475,1.644,1.6438,1.6444,1.6484,1.65,1.6505,1.658,1.6515,1.6518,1.6521,1.6523,1.6715,1.6717,0,0,0,0,0,0,1.6349,1.6358,1.6451,1.6454,1.6383,1.6419,1.6425,1.6449,1.6474,1.6476,1.6446,1.6443,1.6494,1.65,1.6507,1.6594,1.6519,1.6523,1.6525,1.6712,1.6715,1.6718,0,0,0,0,0,0,1.6346,1.6358,1.6449,1.6405,1.6416,1.6424,1.6451,1.6451,1.6467,1.6479,1.6479,1.6462,1.6492,1.6501,1.6558,1.6595,1.6525,1.6529,1.6709,1.6713,1.6717,1.677,0,0,0,0,0,0,1.6343,1.6357,1.6385,1.6406,1.6419,1.65,1.6453,1.6454,1.6475,1.647,1.6493,1.6495,1.6491,1.6552,1.6562,1.66,1.6532,1.6706,1.6711,1.6716,1.6765,1.6775,1.6784,0,0,0,0,0,1.6338,1.6398,1.6387,1.6398,1.6454,1.6502,1.6509,1.6505,1.6478,1.6506,1.6513,1.6494,1.6589,1.6558,1.6569,1.6609,1.6704,1.671,1.6715,1.676,1.6773,1.6784,0,0,0,0,0,0,1.638,1.64,1.6388,1.6456,1.6478,1.6496,1.6532,1.6518,1.6547,1.6542,1.6534,1.654,1.66,1.661,1.6575,1.6681,1.6642,1.665,1.6673,1.6685,1.6694,1.6691,1.6536,0,0,0,0,0,1.6397,1.6435,1.645,1.6509,1.652,1.6524,1.6545,1.6539,1.6561,1.657,1.6582,1.6604,1.6638,1.6662,1.6694,1.6765,1.677,1.6798,1.6807,1.6815,1.6823,1.6862,1.6875,1.6737,1.6737,1.6737,0,0,1.6433,1.6449,1.6473,1.6518,1.6534,1.6573,1.6532,1.6575,1.6605,1.6577,1.6632,1.6641,1.6665,1.673,1.6759,1.674,1.6862,1.6823,1.6829,1.6832,1.6869,1.6882,1.6894,1.6741,1.6741,1.674,0,0,1.6519,1.6534,1.6585,1.6602,1.6627,1.663,1.6642,1.6662,1.6668,1.6723,1.6703,1.6737,1.6797,1.6815,1.6832,1.6924,1.6908,1.6934,1.6985,1.7023,1.7034,1.7043,1.7077,1.709,1.6942,1.6942,1.6942,0,1.6561,1.662,1.6613,1.6658,1.6678,1.6655,1.6706,1.6723,1.6757,1.6772,1.6749,1.6825,1.6839,1.6908,1.693,1.6944,1.6958,1.6933,1.7033,1.7042,1.7051,1.7084,1.7096,1.6945,1.6945,1.6945,1.6944,0,1.667,1.6711,1.6749,1.6784,1.6808,1.6856,1.6856,1.6881,1.6873,1.6877,1.6934,1.695,1.6986,1.7001,1.6993,1.7069,1.7057,1.7034,1.6995,1.7068,1.7098,1.711,1.695,1.6949,1.6948,1.6947,0,0,1.6786,1.6815,1.683,1.6845,1.6871,1.6902,1.6949,1.6984,1.7006,1.703,1.7069,1.712,1.71,1.7119,1.7113,1.7146,1.7219,1.7119,1.7119,1.7138,1.7304,1.7323,1.7337,1.7207,1.721,1.7211,1.7303,0,1.6874,1.6957,1.6951,1.7029,1.7067,1.7044,1.7085,1.7105,1.711,1.7142,1.7147,1.7184,1.7153,1.7165,1.7196,1.7203,1.7252,1.7196,1.7244,1.7246,1.7241,1.7353,1.7373,1.7458,1.7315,1.7317,1.7318,0,1.6989,1.7018,1.7099,1.7119,1.7135,1.7172,1.7204,1.7235,1.7257,1.7258,1.728,1.7268,1.7314,1.7273,1.7337,1.73,1.7318,1.7324,1.7328,1.7333,1.7288,1.7363,1.7485,1.7499,1.7336,1.7335,1.7334,0,1.7068,1.7126,1.7182,1.7196,1.7221,1.7247,1.7258,1.7278,1.7299,1.7327,1.7341,1.7373,1.7391,1.7416,1.7414,1.7384,1.7479,1.7438,1.7482,1.7483,1.7505,1.7504,1.7634,1.7514,1.7514,1.7514,1.7514,0,1.7168,1.7219,1.7218,1.7253,1.7309,1.7302,1.7358,1.7366,1.7383,1.7419,1.7401,1.7435,1.7428,1.7462,1.7459,1.7513,1.7521,1.7524,1.7523,1.7527,1.7527,1.754,1.7535,1.7517,1.7516,1.7516,1.7515,0,1.7266,1.7267,1.7327,1.7345,1.7351,1.7392,1.7407,1.744,1.7443,1.7488,1.7499,1.7503,1.7542,1.7541,1.7584,1.7583,1.765,1.7641,1.7643,1.7642,1.7687,1.7684,1.7832,1.7852,1.7718,1.7719,1.772,0,1.7331,1.737,1.7392,1.7415,1.7428,1.7465,1.7488,1.7481,1.7505,1.7533,1.7562,1.7599,1.7629,1.7691,1.7698,1.7732,1.7725,1.7774,1.773,1.7732,1.7727,1.7726,1.773,1.7784,1.7785,1.7786,1.7787,0,1.7447,1.7446,1.7479,1.7512,1.7539,1.7565,1.7588,1.7608,1.7604,1.7632,1.7671,1.7694,1.7739,1.7776,1.7808,1.7819,1.7803,1.7801,1.7813,1.7819,1.7819,1.7821,1.7669,1.7798,1.7797,1.7796,1.7796,1.7795,1.7532,1.7566,1.7587,1.7624,1.7641,1.7664,1.7696,1.7702,1.7736,1.7772,1.7766,1.781,1.7831,1.7872,1.7886,1.792,1.7903,1.792,1.7925,1.793,1.7936,1.7812,1.7926,1.7925,1.7925,1.7925,1.7924,0,1.7649,1.7661,1.7695,1.7729,1.7758,1.774,1.7765,1.7791,1.7831,1.7851,1.788,1.7926,1.7962,1.7971,1.8006,1.8031,1.8025,1.8041,1.804,1.8043,1.7949,1.7935,1.8046,1.8045,1.8045,1.8045,1.8045,1.8045,1.7713,1.777,1.777,1.7835,1.7846,1.7891,1.7907,1.7927,1.7943,1.7995,1.8025,1.8031,1.8047,1.8083,1.8115,1.8116,1.813,1.815,1.8149,1.8061,1.8049,1.8038,1.8025,1.8152,1.8153,1.824,1.8241,1.8242]}]]